Regional Weather Roundup
Issued by NWS

Home | Current Version | Previous Version | Text Only | Print | Product List | Glossary On
Versions: 1 2 3 4 5 6 7 8 9 10 11 12 13 14 15 16 17 18 19 20 21 22 23 24 25 26 27 28 29 30 31 32 33 34 35 36 37 38 39 40 41 42 43 44 45 46 47 48 49 50
065
ASUS43 KTOP 302259
RWRKS

WEATHER ROUNDUP FOR KANSAS
NATIONAL WEATHER SERVICE GOODLAND KS
600 PM CDT SAT APR 30 2016

NOTE:  "FAIR" INDICATES FEW OR NO CLOUDS BELOW 12,000 FEET WITH NO
SIGNIFICANT WEATHER AND/OR OBSTRUCTIONS TO VISIBILITY.

KSZ001>006-013>018-027>032-041>047-010000-
NORTHWEST KANSAS

CITY           SKY/WX    TMP DP  RH WIND       PRES   REMARKS
GOODLAND       CLOUDY    37  33  85 N23       29.89R WCI  26
HAYS           CLOUDY    50  36  57 NW14      29.83R
HILL CITY      CLOUDY    47  38  71 NW12      29.85R
RUSSELL        CLOUDY    51  40  65 W17       29.81R
$$

KSZ061>065-074>080-084>089-010000-
SOUTHWEST KANSAS

CITY           SKY/WX    TMP DP  RH WIND       PRES   REMARKS
DODGE CITY     PTSUNNY   51  37  58 W18       29.86R
ELKHART          N/A     52  31  44 NW17        N/A
GARDEN CITY    CLOUDY    49  33  54 W21G28    29.86R
GREAT BEND     CLOUDY    54  39  58 NW14      29.83R
LIBERAL        PTSUNNY   57  37  47 N22       29.89R
$$

KSZ066>073-081>083-090>101-010000-
SOUTHEAST KANSAS

CITY           SKY/WX    TMP DP  RH WIND       PRES   REMARKS
CHANUTE        SUNNY     66  48  52 W12       29.77S
COFFEYVILLE    SUNNY     68  49  50 W10G21    29.78R
HUTCHINSON     CLOUDY    57  42  57 W14       29.82R
MEDICINE LODGE   N/A     61  39  44 NW15      29.83R
NEWTON         PTSUNNY   57  39  51 W14G23    29.83R
PARSONS        SUNNY     67  51  56 NW10      29.79R
WICHITA INTL   MOSUNNY   61  42  49 W20       29.81R
WICHITA JABRA  MOSUNNY   60  43  53 W17G26    29.81R
WINFIELD       SUNNY     64  45  49 W13       29.81R
$$

KSZ007>012-019>026-033>040-048>060-102>105-010000-
NORTHEAST KANSAS

CITY           SKY/WX    TMP DP  RH WIND       PRES   REMARKS
CONCORDIA      CLOUDY    53  44  71 NW9       29.78R
EMPORIA        MOSUNNY   62  45  53 W12G18    29.78R
LAWRENCE       MOSUNNY   66  47  50 W17       29.75R
MANHATTAN      MOSUNNY   61  44  53 W12G18    29.77R
OLATHE IND     SUNNY     66  47  50 W14       29.76R
OLATHE EXE     SUNNY     64  47  53 W8        29.75R
SALINA         CLOUDY    58  45  62 W14       29.80R
TOPEKA BILLARD PTSUNNY   65  47  52 W12       29.75R
TOPEKA FORBES  SUNNY     66  47  50 W15       29.75R
$$




USA.gov is the U.S. government's official web portal to all federal, state and local government web resources and services.